Cartersville, GA

3:22 PM EDT on July 24, 2016 (GMT -0400)
Cartersville

Weather History for KVPC - September, 2013

Change the Weather History Date:

Wednesday, September 18, 2013

  Actual Average Record
Temperature  
Mean Temperature 71 °F 71 °F  
Max Temperature 79 °F 82 °F 93 °F (2010)
Min Temperature 62 °F 59 °F 51 °F (2000)
Degree Days  
Heating Degree Days 0 0  
Month to date heating degree days 0 0  
Since 1 July heating degree days 0 0  
Cooling Degree Days 6 6  
Month to date cooling degree days 177 157  
Year to date cooling degree days 1355 1422  
Growing Degree Days 20 (Base 50)    
Moisture  
Dew Point 59 °F    
Average Humidity 74    
Maximum Humidity 93    
Minimum Humidity 54    
Precipitation  
Precipitation 0.00 in 0.13 in 1.38 in (1975)
Month to date precipitation 1.40 2.05  
Year to date precipitation 31.43 36.64  
Sea Level Pressure  
Sea Level Pressure 30.17 in    
Wind  
Wind Speed 4 mph (ESE)    
Max Wind Speed 9 mph    
Max Gust Speed 14 mph    
Visibility 10 miles    
Events      
T = Trace of Precipitation, MM = Missing Value Source: NWS Daily Summary

Daily Weather History Graph

Daily Weather History Graph

Search for Another Location

Airport or City:

Trip Planner

Search our weather history database for the weather conditions in past years. The results will help you decide how hot, cold, wet, or windy it might be!

Date:

Astronomy

Sep. 18, 2013 Rise Set
Actual Time 7:24 AM EDT 7:41 PM EDT
Civil Twilight 6:59 AM EDT 8:06 PM EDT
Nautical Twilight 6:30 AM EDT 8:35 PM EDT
Astronomical Twilight 6:00 AM EDT 9:05 PM EDT
Moon 7:04 PM EDT (9/18) 6:27 AM EDT (9/18)
Length of Visible Light 13h 06m
Length of Day
12h 16m
Waxing Gibbous, 99% of the Moon is Illuminated
Sep 18
Waxing Gibbous
Sep 19
Full
Sep 26
Last Quarter
Oct 4
New
Oct 11
First Quarter

Hourly Weather History & Observations

Time (EDT) Temp. Dew Point Humidity Pressure Visibility Wind Dir Wind Speed Gust Speed Precip Events Conditions
12:53 AM 68.0 °F 59.0 °F 73% 30.18 in 10.0 mi East 4.6 mph - N/A   Overcast
1:53 AM 66.0 °F 59.0 °F 78% 30.18 in 10.0 mi ESE 3.5 mph - N/A   Partly Cloudy
2:53 AM 66.0 °F 59.0 °F 78% 30.17 in 10.0 mi East 3.5 mph - N/A   Clear
3:53 AM 66.0 °F 57.9 °F 75% 30.17 in 10.0 mi Calm Calm - N/A   Overcast
4:53 AM 66.9 °F 55.9 °F 68% 30.17 in 10.0 mi East 4.6 mph - N/A   Overcast
5:53 AM 66.9 °F 55.9 °F 68% 30.17 in 10.0 mi East 5.8 mph - N/A   Overcast
6:53 AM 66.0 °F 57.0 °F 73% 30.18 in 10.0 mi East 3.5 mph - N/A   Overcast
7:53 AM 66.0 °F 57.0 °F 73% 30.20 in 10.0 mi East 3.5 mph - N/A   Overcast
8:53 AM 66.9 °F 57.0 °F 70% 30.22 in 10.0 mi Variable 5.8 mph - N/A   Overcast
9:53 AM 66.9 °F 57.0 °F 70% 30.23 in 10.0 mi Variable 4.6 mph - N/A   Overcast
10:53 AM 71.1 °F 57.9 °F 63% 30.23 in 10.0 mi Variable 3.5 mph - N/A   Overcast
11:53 AM 73.9 °F 59.0 °F 59% 30.22 in 10.0 mi East 6.9 mph - N/A   Mostly Cloudy
12:53 PM 73.9 °F 60.1 °F 62% 30.21 in 10.0 mi Variable 5.8 mph - N/A   Overcast
1:53 PM 75.0 °F 60.1 °F 60% 30.19 in 10.0 mi ESE 8.1 mph - N/A   Overcast
2:53 PM 77.0 °F 61.0 °F 58% 30.17 in 10.0 mi Variable 6.9 mph - N/A   Overcast
3:53 PM 78.1 °F 60.1 °F 54% 30.15 in 10.0 mi Variable 5.8 mph - N/A   Partly Cloudy
4:53 PM 79.0 °F 61.0 °F 54% 30.13 in 10.0 mi Variable 5.8 mph - N/A   Overcast
5:53 PM 78.1 °F 61.0 °F 56% 30.12 in 10.0 mi Variable 3.5 mph - N/A   Clear
6:53 PM 73.9 °F 61.0 °F 64% 30.12 in 10.0 mi SSE 3.5 mph - N/A   Clear
7:53 PM 66.9 °F 62.1 °F 84% 30.13 in 10.0 mi Calm Calm - N/A   Clear
8:53 PM 64.0 °F 61.0 °F 90% 30.14 in 10.0 mi Calm Calm - N/A   Clear
9:53 PM 62.1 °F 60.1 °F 93% 30.16 in 10.0 mi ESE 3.5 mph - N/A   Clear
10:53 PM 63.0 °F 60.1 °F 90% 30.16 in 10.0 mi Calm Calm - N/A   Clear
11:53 PM 64.9 °F 61.0 °F 87% 30.16 in 10.0 mi Calm Calm - N/A   Clear